Regional Weather Roundup
Issued by NWS Cleveland, OH

Home | Current Version | Previous Version | Graphics & Text | Print | Product List | Glossary On
Versions: 1 2 3 4 5 6 7 8 9 10 11 12 13 14 15 16 17 18 19 20 21 22 23 24 25 26 27 28 29 30 31 32 33 34 35 36 37 38 39 40 41 42 43 44 45 46 47 48 49 50
000
ASUS41 KCLE 251112
RWRCLE
OHIO REGIONAL WEATHER ROUNDUP
NATIONAL WEATHER SERVICE WILMINGTON, OH
600 AM EST SAT FEB 25 2017

NOTE: "FAIR" INDICATES FEW OR NO CLOUDS BELOW 12,000 FEET WITH NO
SIGNIFICANT WEATHER AND/OR OBSTRUCTIONS TO VISIBILITY.

OHZ001>008-015>018-024>027-034-035-043-044-251200-
   NORTHWEST OHIO

CITY           SKY/WX    TMP DP  RH WIND       PRES   REMARKS
DEFIANCE       MOCLDY    38  32  79 SW10G17   29.58R
FINDLAY        FAIR      42  31  64 SW18G29   29.59R
TOLEDO EXPRESS CLOUDY    40  36  86 SW7       29.56R
TOLEDO EXEC    FAIR      40  36  86 S7        29.57R
LIMA           FAIR      39  34  82 SW12      29.60R
$$

OHZ009>014-019>023-028>033-038-089-251200-
   NORTHEAST OHIO

CITY           SKY/WX    TMP DP  RH WIND       PRES   REMARKS
CLE-HOPKINS    FAIR      45  36  70 W12       29.57S
CLE-LAKEFRONT  CLOUDY    43  39  86 SW15      29.54F
CUY CO. ARPT   NOT AVBL
LORAIN-ELYRIA  FAIR      42  34  73 W12       29.57F
ASHTABULA      LGT RAIN  45  42  89 W16G22    29.55S
AKRON-CANTON   LGT RAIN  47  42  83 W16       29.55F
WOOSTER        FAIR      43  34  70 W12       29.58S
MANSFIELD      FAIR      40  34  79 SW7       29.58S
YOUNGSTOWN     LGT RAIN  50  46  86 W12       29.54R
$$

OHZ042-051>053-060>062-070>072-077>081-251200-
  SOUTHWEST OHIO

CITY           SKY/WX    TMP DP  RH WIND       PRES   REMARKS
CINC-COVINGTON CLOUDY    42  33  70 W9        29.68R
CINC-LUNKEN    FAIR      44  34  67 W13       29.70R
HAMILTON       CLOUDY    43  34  70 SW5       29.68F
DAYTON         MOCLDY    39  31  72 W13       29.64F
WRIGHT-PAT AFB PTCLDY    41  33  73 W6        29.64F
DAYTON GENERAL FAIR      41  32  70 W9        29.64F
WILMINGTON     MOCLDY    41  33  73 W7        29.65S
$$

OHZ036-037-039>041-045>050-054>059-063>069-073>076-082>088-251200-
  CENTRAL AND SOUTHEAST OHIO

CITY           SKY/WX    TMP DP  RH WIND       PRES   REMARKS
COLUMBUS       CLOUDY    45  36  70 NW6       29.61F
OSU AIRPORT    FAIR      41  37  86 W6        29.61F
BOLTON FIELD   CLOUDY    43  38  83 W6        29.63S
RICKENBACK AFB FAIR      44  39  83 W5        29.63R
NEWARK         CLOUDY    45  36  70 W7        29.61R
MARION         MOCLDY    43  35  73 W13G21    29.61S
LANCASTER      MOCLDY    47  40  76 NW5       29.62S
ZANESVILLE     LGT RAIN  48  43  82 W5        29.60S
NEW PHILLY     LGT RAIN  48  42  80 W7        29.59R
$$




USA.gov is the U.S. government's official web portal to all federal, state and local government web resources and services.